Project,Study,Ord_Occ,Event_Num,Date_Time_UTC,Date_Time_PST,Lat_Dec,Lon_Dec,Sta_ID,Line,Sta,Depth,Pressure,Temp0,Temp1,Salt0,CorrSalt0,Salt1,CorrSalt1,O2ml/L,AveCorrO2ml/L,StaCorrO2ml/L,FluorV,AveEstChl,StaEstChl,ISUSV,AveEstNO3,StaEstNO3,SigThetaTS0,SigThetaTS1,BAT,XMiss,SPAR,PAR,BTL_Depth,BTL_Temp,BTL_Salt,BTL_O2ml/L,BTL_Chl,BTL_Pha,BTL_NO3
CalCOFI,0701JD,051,503,25-Jan-2007 5:43:45 AM,24-Jan-2007 9:43:45 PM,33.88000,-120.13134,083.3 051.0,083.3,051.0,86.000,86.635,10.2861,10.2865,33.9408,33.9395,33.9381,33.9382,1.94072,2.33,2.36,0.0401,0.08,0.13,1.2264,25.51,23.330,26.0778,26.0756,0.4709,88.8946,4.5200e+00,9.9990e+03,87,10.27 ,33.945, 2.28,.11,.35,24.0
CalCOFI,0701JD,051,503,25-Jan-2007 5:43:52 AM,24-Jan-2007 9:43:52 PM,33.88000,-120.13134,083.3 051.0,083.3,051.0,85.000,85.628,10.2932,10.2935,33.9388,33.9375,33.9362,33.9363,1.94487,2.34,2.37,0.0374,0.07,0.11,1.2156,25.19,23.004,26.0750,26.0729,0.4706,88.9002,4.5601e+00,9.9990e+03,,,,,,,
CalCOFI,0701JD,051,503,25-Jan-2007 5:43:54 AM,24-Jan-2007 9:43:54 PM,33.88000,-120.13134,083.3 051.0,083.3,051.0,84.000,84.620,10.2959,10.2965,33.9383,33.9370,33.9354,33.9355,1.95428,2.35,2.38,0.0463,0.09,0.16,1.2464,26.10,23.934,26.0741,26.0718,0.4703,88.9075,4.3581e+00,9.9990e+03,,,,,,,
CalCOFI,0701JD,051,503,25-Jan-2007 5:43:56 AM,24-Jan-2007 9:43:56 PM,33.88000,-120.13134,083.3 051.0,083.3,051.0,83.000,83.613,10.3095,10.3090,33.9357,33.9344,33.9328,33.9329,1.98731,2.39,2.42,0.0490,0.10,0.18,1.2470,26.11,23.952,26.0697,26.0676,0.4708,88.8956,4.4995e+00,9.9990e+03,,,,,,,
CalCOFI,0701JD,051,503,25-Jan-2007 5:43:57 AM,24-Jan-2007 9:43:57 PM,33.88000,-120.13134,083.3 051.0,083.3,051.0,82.000,82.605,10.3787,10.3766,33.9245,33.9232,33.9200,33.9201,2.03061,2.44,2.47,0.0410,0.08,0.13,1.2268,25.52,23.343,26.0491,26.0459,0.4720,88.8692,4.5749e+00,9.9990e+03,,,,,,,
CalCOFI,0701JD,051,503,25-Jan-2007 5:43:59 AM,24-Jan-2007 9:43:59 PM,33.88000,-120.13134,083.3 051.0,083.3,051.0,81.000,81.597,10.5412,10.5437,33.8962,33.8949,33.8906,33.8907,2.04407,2.46,2.49,0.0402,0.08,0.13,1.2148,25.17,22.980,25.9988,25.9940,0.4745,88.8147,4.4077e+00,9.9990e+03,,,,,,,
CalCOFI,0701JD,051,503,25-Jan-2007 5:44:22 AM,24-Jan-2007 9:44:22 PM,33.88004,-120.13134,083.3 051.0,083.3,051.0,80.000,80.590,10.5346,10.5332,33.8962,33.8949,33.8913,33.8914,2.05151,2.47,2.50,0.0508,0.11,0.19,1.1965,24.63,22.428,25.9999,25.9963,0.4763,88.7751,4.7401e+00,9.9990e+03,80,10.59 ,33.881, 2.54,.18,.34,22.2
CalCOFI,0701JD,051,503,25-Jan-2007 5:45:58 AM,24-Jan-2007 9:45:58 PM,33.88016,-120.13134,083.3 051.0,083.3,051.0,79.000,79.582,10.6794,10.6876,33.8692,33.8679,33.8654,33.8655,2.18672,2.63,2.66,0.0473,0.10,0.17,1.1689,23.82,21.595,25.9535,25.9491,0.4791,88.7116,4.7019e+00,9.9990e+03,,,,,,,
CalCOFI,0701JD,051,503,25-Jan-2007 5:46:00 AM,24-Jan-2007 9:46:00 PM,33.88016,-120.13134,083.3 051.0,083.3,051.0,78.000,78.575,10.7907,10.8097,33.8514,33.8501,33.8446,33.8447,2.20988,2.66,2.69,0.0530,0.11,0.20,1.1976,24.66,22.461,25.9200,25.9114,0.4781,88.7354,4.4305e+00,9.9990e+03,,,,,,,
CalCOFI,0701JD,051,503,25-Jan-2007 5:46:02 AM,24-Jan-2007 9:46:02 PM,33.88016,-120.13134,083.3 051.0,083.3,051.0,77.000,77.567,10.8277,10.8303,33.8441,33.8428,33.8421,33.8422,2.22362,2.68,2.71,0.0524,0.11,0.20,1.1542,23.39,21.151,25.9078,25.9057,0.4726,88.8569,4.5922e+00,9.9990e+03,,,,,,,
CalCOFI,0701JD,051,503,25-Jan-2007 5:46:04 AM,24-Jan-2007 9:46:04 PM,33.88016,-120.13134,083.3 051.0,083.3,051.0,76.000,76.560,10.8350,10.8362,33.8426,33.8413,33.8408,33.8409,2.23015,2.68,2.72,0.0694,0.16,0.30,1.1757,24.02,21.800,25.9053,25.9037,0.4697,88.9210,5.0611e+00,9.9990e+03,,,,,,,
CalCOFI,0701JD,051,503,25-Jan-2007 5:46:06 AM,24-Jan-2007 9:46:06 PM,33.88016,-120.13134,083.3 051.0,083.3,051.0,75.000,75.552,10.8371,10.8378,33.8421,33.8408,33.8403,33.8404,2.23072,2.69,2.72,0.0525,0.11,0.20,1.1722,23.92,21.694,25.9045,25.9030,0.4707,88.8991,4.7674e+00,9.9990e+03,,,,,,,
CalCOFI,0701JD,051,503,25-Jan-2007 5:46:07 AM,24-Jan-2007 9:46:07 PM,33.88016,-120.13134,083.3 051.0,083.3,051.0,74.000,74.544,10.8374,10.8375,33.8417,33.8404,33.8402,33.8403,2.22913,2.68,2.72,0.0464,0.09,0.16,1.1669,23.76,21.534,25.9041,25.9029,0.4690,88.9361,4.6195e+00,9.9990e+03,,,,,,,
CalCOFI,0701JD,051,503,25-Jan-2007 5:46:09 AM,24-Jan-2007 9:46:09 PM,33.88016,-120.13134,083.3 051.0,083.3,051.0,73.000,73.537,10.8352,10.8357,33.8417,33.8404,33.8402,33.8403,2.22773,2.68,2.71,0.0526,0.11,0.20,1.1480,23.21,20.964,25.9045,25.9032,0.4696,88.9217,4.8332e+00,9.9990e+03,,,,,,,
CalCOFI,0701JD,051,503,25-Jan-2007 5:46:10 AM,24-Jan-2007 9:46:10 PM,33.88016,-120.13134,083.3 051.0,083.3,051.0,72.000,72.529,10.8323,10.8326,33.8420,33.8407,33.8405,33.8406,2.22719,2.68,2.71,0.0562,0.12,0.22,1.1530,23.35,21.115,25.9052,25.9040,0.4680,88.9590,4.2404e+00,9.9990e+03,,,,,,,
CalCOFI,0701JD,051,503,25-Jan-2007 5:46:11 AM,24-Jan-2007 9:46:11 PM,33.88016,-120.13134,083.3 051.0,083.3,051.0,71.000,71.522,10.8336,10.8337,33.8418,33.8405,33.8402,33.8403,2.22854,2.68,2.72,0.0668,0.15,0.28,1.1700,23.85,21.628,25.9048,25.9035,0.4676,88.9687,4.5479e+00,9.9990e+03,,,,,,,
CalCOFI,0701JD,051,503,25-Jan-2007 5:46:22 AM,24-Jan-2007 9:46:22 PM,33.88016,-120.13118,083.3 051.0,083.3,051.0,70.000,70.514,10.8386,10.8383,33.8405,33.8392,33.8391,33.8392,2.22943,2.68,2.72,0.0530,0.11,0.20,1.1558,23.44,21.199,25.9029,25.9018,0.4674,88.9707,4.8157e+00,9.9990e+03,70,10.84 ,33.841, 2.65,.15,.27,21.3
CalCOFI,0701JD,051,503,25-Jan-2007 5:47:09 AM,24-Jan-2007 9:47:09 PM,33.88025,-120.13118,083.3 051.0,083.3,051.0,69.000,69.507,10.8428,10.8437,33.8397,33.8384,33.8382,33.8383,2.22608,2.68,2.71,0.0490,0.10,0.18,1.1432,23.07,20.819,25.9015,25.9001,0.4640,89.0470,4.5596e+00,9.9990e+03,,,,,,,
CalCOFI,0701JD,051,503,25-Jan-2007 5:47:10 AM,24-Jan-2007 9:47:10 PM,33.88032,-120.13118,083.3 051.0,083.3,051.0,68.000,68.499,10.8472,10.8458,33.8392,33.8379,33.8378,33.8379,2.22953,2.68,2.72,0.0462,0.09,0.16,1.1273,22.60,20.339,25.9003,25.8995,0.4664,88.9946,5.0091e+00,9.9990e+03,,,,,,,
CalCOFI,0701JD,051,503,25-Jan-2007 5:47:11 AM,24-Jan-2007 9:47:11 PM,33.88032,-120.13118,083.3 051.0,083.3,051.0,67.000,67.492,10.9012,10.9034,33.8299,33.8286,33.8270,33.8271,2.22795,2.68,2.71,0.0455,0.09,0.16,1.1177,22.32,20.049,25.8834,25.8808,0.4652,89.0219,4.3576e+00,9.9990e+03,,,,,,,
CalCOFI,0701JD,051,503,25-Jan-2007 5:47:13 AM,24-Jan-2007 9:47:13 PM,33.88032,-120.13118,083.3 051.0,083.3,051.0,66.000,66.484,10.9194,10.9199,33.8262,33.8249,33.8244,33.8245,2.22932,2.68,2.72,0.0573,0.12,0.23,1.1416,23.02,20.771,25.8773,25.8758,0.4628,89.0726,4.7596e+00,9.9990e+03,,,,,,,
CalCOFI,0701JD,051,503,25-Jan-2007 5:47:15 AM,24-Jan-2007 9:47:15 PM,33.88032,-120.13118,083.3 051.0,083.3,051.0,65.000,65.477,10.9175,10.9209,33.8261,33.8248,33.8244,33.8245,2.22765,2.68,2.71,0.0520,0.11,0.20,1.1426,23.05,20.801,25.8775,25.8756,0.4638,89.0523,4.8555e+00,9.9990e+03,,,,,,,
CalCOFI,0701JD,051,503,25-Jan-2007 5:47:17 AM,24-Jan-2007 9:47:17 PM,33.88032,-120.13118,083.3 051.0,083.3,051.0,64.000,64.469,10.9248,10.9254,33.8249,33.8236,33.8232,33.8233,2.23768,2.69,2.73,0.0480,0.10,0.17,1.1315,22.72,20.466,25.8752,25.8739,0.4640,89.0466,4.8561e+00,9.9990e+03,,,,,,,
CalCOFI,0701JD,051,503,25-Jan-2007 5:47:18 AM,24-Jan-2007 9:47:18 PM,33.88032,-120.13118,083.3 051.0,083.3,051.0,63.000,63.462,10.9341,10.9355,33.8224,33.8211,33.8207,33.8208,2.24735,2.71,2.74,0.0465,0.09,0.16,1.0780,21.15,18.851,25.8717,25.8700,0.4630,89.0698,4.5742e+00,9.9990e+03,,,,,,,
CalCOFI,0701JD,051,503,25-Jan-2007 5:47:20 AM,24-Jan-2007 9:47:20 PM,33.88032,-120.13118,083.3 051.0,083.3,051.0,62.000,62.454,10.9414,10.9417,33.8208,33.8195,33.8190,33.8191,2.25634,2.72,2.75,0.0448,0.09,0.15,1.0968,21.70,19.418,25.8691,25.8676,0.4639,89.0494,4.7661e+00,9.9990e+03,,,,,,,
CalCOFI,0701JD,051,503,25-Jan-2007 5:47:20 AM,24-Jan-2007 9:47:20 PM,33.88032,-120.13118,083.3 051.0,083.3,051.0,61.000,61.447,10.9506,10.9513,33.8202,33.8189,33.8185,33.8186,2.26254,2.72,2.76,0.0466,0.09,0.16,1.1148,22.23,19.962,25.8669,25.8655,0.4650,89.0264,4.6389e+00,9.9990e+03,,,,,,,
CalCOFI,0701JD,051,503,25-Jan-2007 5:47:22 AM,24-Jan-2007 9:47:22 PM,33.88032,-120.13118,083.3 051.0,083.3,051.0,60.000,60.439,10.9680,10.9691,33.8160,33.8147,33.8145,33.8146,2.25890,2.72,2.75,0.0519,0.11,0.20,1.1297,22.67,20.412,25.8606,25.8592,0.4669,88.9845,4.9546e+00,9.9990e+03,60,10.98 ,33.814, 2.74,.15,.26,20.6
CalCOFI,0701JD,051,503,25-Jan-2007 5:47:43 AM,24-Jan-2007 9:47:43 PM,33.88032,-120.13118,083.3 051.0,083.3,051.0,59.000,59.432,10.9781,10.9795,33.8132,33.8119,33.8119,33.8120,2.26992,2.73,2.77,0.0520,0.11,0.20,1.1207,22.41,20.140,25.8566,25.8553,0.4679,88.9603,4.9764e+00,9.9990e+03,,,,,,,
CalCOFI,0701JD,051,503,25-Jan-2007 5:48:22 AM,24-Jan-2007 9:48:22 PM,33.88032,-120.13118,083.3 051.0,083.3,051.0,58.000,58.424,11.0018,11.0046,33.8102,33.8089,33.8081,33.8082,2.32354,2.80,2.83,0.0510,0.11,0.19,1.1138,22.20,19.932,25.8499,25.8478,0.4696,88.9231,4.7263e+00,9.9990e+03,,,,,,,
CalCOFI,0701JD,051,503,25-Jan-2007 5:48:23 AM,24-Jan-2007 9:48:23 PM,33.88032,-120.13118,083.3 051.0,083.3,051.0,57.000,57.417,11.0241,11.0299,33.8053,33.8040,33.8018,33.8019,2.33668,2.81,2.85,0.0619,0.14,0.25,1.1072,22.01,19.732,25.8421,25.8384,0.4716,88.8780,4.6083e+00,9.9990e+03,,,,,,,
CalCOFI,0701JD,051,503,25-Jan-2007 5:48:24 AM,24-Jan-2007 9:48:24 PM,33.88032,-120.13118,083.3 051.0,083.3,051.0,56.000,56.410,11.0506,11.0542,33.7986,33.7973,33.7962,33.7963,2.34640,2.83,2.86,0.0576,0.13,0.23,1.1242,22.51,20.245,25.8322,25.8296,0.4729,88.8488,5.1180e+00,9.9990e+03,,,,,,,
CalCOFI,0701JD,051,503,25-Jan-2007 5:48:25 AM,24-Jan-2007 9:48:25 PM,33.88032,-120.13118,083.3 051.0,083.3,051.0,55.000,55.402,11.0681,11.0705,33.7961,33.7948,33.7945,33.7946,2.35691,2.84,2.87,0.0577,0.13,0.23,1.1310,22.71,20.451,25.8270,25.8254,0.4725,88.8579,4.6289e+00,9.9990e+03,,,,,,,
CalCOFI,0701JD,051,503,25-Jan-2007 5:48:27 AM,24-Jan-2007 9:48:27 PM,33.88032,-120.13118,083.3 051.0,083.3,051.0,54.000,54.395,11.0753,11.0783,33.7959,33.7946,33.7944,33.7945,2.36786,2.85,2.89,0.0577,0.13,0.23,1.1002,21.80,19.521,25.8256,25.8239,0.4714,88.8824,4.7451e+00,9.9990e+03,,,,,,,
CalCOFI,0701JD,051,503,25-Jan-2007 5:48:28 AM,24-Jan-2007 9:48:28 PM,33.88032,-120.13118,083.3 051.0,083.3,051.0,53.000,53.387,11.0821,11.0837,33.7956,33.7943,33.7942,33.7943,2.37212,2.86,2.89,0.0619,0.14,0.25,1.0970,21.71,19.424,25.8241,25.8227,0.4732,88.8417,4.7211e+00,9.9990e+03,,,,,,,
CalCOFI,0701JD,051,503,25-Jan-2007 5:48:30 AM,24-Jan-2007 9:48:30 PM,33.88032,-120.13118,083.3 051.0,083.3,051.0,52.000,52.380,11.0952,11.0986,33.7947,33.7934,33.7925,33.7926,2.39466,2.88,2.92,0.0632,0.14,0.26,1.0666,20.82,18.507,25.8210,25.8187,0.4729,88.8493,4.9672e+00,9.9990e+03,,,,,,,
CalCOFI,0701JD,051,503,25-Jan-2007 5:48:31 AM,24-Jan-2007 9:48:31 PM,33.88032,-120.13118,083.3 051.0,083.3,051.0,51.000,51.372,11.1135,11.1198,33.7928,33.7915,33.7906,33.7907,2.39708,2.89,2.92,0.0689,0.16,0.29,1.0715,20.96,18.655,25.8163,25.8134,0.4754,88.7937,5.0138e+00,9.9990e+03,,,,,,,
CalCOFI,0701JD,051,503,25-Jan-2007 5:48:58 AM,24-Jan-2007 9:48:58 PM,33.88036,-120.13118,083.3 051.0,083.3,051.0,50.000,50.365,11.1242,11.1272,33.7915,33.7902,33.7897,33.7898,2.41350,2.91,2.94,0.0650,0.15,0.27,1.0773,21.13,18.830,25.8132,25.8114,0.4771,88.7574,4.7447e+00,9.9990e+03,50,11.14 ,33.791, 2.93,.26,.36,19.4
CalCOFI,0701JD,051,503,25-Jan-2007 5:50:36 AM,24-Jan-2007 9:50:36 PM,33.88048,-120.13118,083.3 051.0,083.3,051.0,49.000,49.357,11.1352,11.1366,33.7902,33.7889,33.7886,33.7887,2.44078,2.94,2.97,0.0665,0.15,0.28,1.0671,20.83,18.522,25.8102,25.8088,0.4798,88.6973,4.8901e+00,9.9990e+03,,,,,,,
CalCOFI,0701JD,051,503,25-Jan-2007 5:50:35 AM,24-Jan-2007 9:50:35 PM,33.88048,-120.13118,083.3 051.0,083.3,051.0,48.000,48.350,11.1453,11.1470,33.7883,33.7870,33.7865,33.7866,2.46041,2.97,3.00,0.0649,0.15,0.27,1.0669,20.83,18.516,25.8069,25.8052,0.4784,88.7277,4.8638e+00,9.9990e+03,,,,,,,
CalCOFI,0701JD,051,503,25-Jan-2007 5:50:37 AM,24-Jan-2007 9:50:37 PM,33.88048,-120.13118,083.3 051.0,083.3,051.0,47.000,47.343,11.1687,11.1757,33.7836,33.7823,33.7806,33.7807,2.47707,2.99,3.02,0.0684,0.16,0.29,1.0725,20.99,18.685,25.7990,25.7954,0.4774,88.7489,5.0811e+00,9.9990e+03,,,,,,,
CalCOFI,0701JD,051,503,25-Jan-2007 5:50:38 AM,24-Jan-2007 9:50:38 PM,33.88048,-120.13118,083.3 051.0,083.3,051.0,46.000,46.335,11.2278,11.2377,33.7761,33.7748,33.7721,33.7722,2.56357,3.09,3.12,0.0762,0.18,0.34,1.0997,21.79,19.506,25.7825,25.7776,0.4798,88.6967,5.1853e+00,9.9990e+03,,,,,,,
CalCOFI,0701JD,051,503,25-Jan-2007 5:50:40 AM,24-Jan-2007 9:50:40 PM,33.88048,-120.13118,083.3 051.0,083.3,051.0,45.000,45.328,11.3293,11.3418,33.7641,33.7628,33.7575,33.7576,2.68751,3.24,3.28,0.0830,0.20,0.37,1.0858,21.38,19.086,25.7547,25.7473,0.4791,88.7112,4.9667e+00,9.9990e+03,,,,,,,
CalCOFI,0701JD,051,503,25-Jan-2007 5:50:41 AM,24-Jan-2007 9:50:41 PM,33.88048,-120.13118,083.3 051.0,083.3,051.0,44.000,44.320,11.4969,11.5175,33.7453,33.7440,33.7395,33.7396,2.79190,3.37,3.40,0.0868,0.21,0.40,1.0575,20.55,18.232,25.7094,25.7011,0.4921,88.4247,5.2507e+00,9.9990e+03,,,,,,,
CalCOFI,0701JD,051,503,25-Jan-2007 5:50:42 AM,24-Jan-2007 9:50:42 PM,33.88048,-120.13118,083.3 051.0,083.3,051.0,43.000,43.313,11.5817,11.6011,33.7355,33.7342,33.7304,33.7305,2.91975,3.53,3.56,0.1148,0.29,0.55,1.0417,20.09,17.755,25.6861,25.6786,0.4948,88.3653,5.6041e+00,9.9990e+03,,,,,,,
CalCOFI,0701JD,051,503,25-Jan-2007 5:50:43 AM,24-Jan-2007 9:50:43 PM,33.88048,-120.13118,083.3 051.0,083.3,051.0,42.000,42.306,11.6392,11.6452,33.7275,33.7262,33.7256,33.7257,3.05834,3.69,3.73,0.1256,0.33,0.61,1.0395,20.02,17.689,25.6693,25.6667,0.5007,88.2350,5.3197e+00,9.9990e+03,,,,,,,
CalCOFI,0701JD,051,503,25-Jan-2007 5:50:45 AM,24-Jan-2007 9:50:45 PM,33.88048,-120.13118,083.3 051.0,083.3,051.0,41.000,41.298,11.9148,11.9460,33.7069,33.7056,33.6925,33.6926,3.10413,3.75,3.78,0.1248,0.32,0.61,1.0008,18.89,16.521,25.6017,25.5846,0.5072,88.0922,4.8153e+00,9.9990e+03,,,,,,,
CalCOFI,0701JD,051,503,25-Jan-2007 5:50:54 AM,24-Jan-2007 9:50:54 PM,33.88055,-120.13119,083.3 051.0,083.3,051.0,40.000,40.291,12.1260,12.0118,33.6738,33.6725,33.6864,33.6865,3.24271,3.92,3.95,0.1767,0.49,0.90,0.9007,15.95,13.499,25.5363,25.5675,0.5103,88.0236,5.0832e+00,9.9990e+03,40,12.18 ,33.674, 4.18,1.10,.72,11.6
CalCOFI,0701JD,051,503,25-Jan-2007 5:51:46 AM,24-Jan-2007 9:51:46 PM,33.88066,-120.13134,083.3 051.0,083.3,051.0,39.000,39.284,12.2063,12.2060,33.6640,33.6627,33.6632,33.6633,3.59651,4.35,4.39,0.2211,0.63,1.13,0.8061,13.17,10.644,25.5134,25.5128,0.5289,87.6136,4.9917e+00,9.9990e+03,,,,,,,
CalCOFI,0701JD,051,503,25-Jan-2007 5:51:47 AM,24-Jan-2007 9:51:47 PM,33.88066,-120.13134,083.3 051.0,083.3,051.0,38.000,38.276,12.3285,12.3580,33.6596,33.6583,33.6546,33.6547,3.66174,4.43,4.47,0.1874,0.52,0.95,0.8349,14.02,11.513,25.4865,25.4770,0.5349,87.4823,5.1414e+00,9.9990e+03,,,,,,,
CalCOFI,0701JD,051,503,25-Jan-2007 5:51:48 AM,24-Jan-2007 9:51:48 PM,33.88066,-120.13134,083.3 051.0,083.3,051.0,37.000,37.269,12.4351,12.4423,33.6533,33.6520,33.6507,33.6508,3.70825,4.49,4.52,0.2851,0.84,1.46,0.8450,14.31,11.818,25.4611,25.4577,0.5568,87.0050,5.1001e+00,9.9990e+03,,,,,,,
CalCOFI,0701JD,051,503,25-Jan-2007 5:51:50 AM,24-Jan-2007 9:51:50 PM,33.88066,-120.13134,083.3 051.0,083.3,051.0,36.000,36.261,12.4748,12.4792,33.6481,33.6468,33.6465,33.6466,3.80125,4.60,4.64,0.4909,1.59,2.44,0.8189,13.55,11.030,25.4494,25.4473,0.5579,86.9821,5.0396e+00,9.9990e+03,,,,,,,
CalCOFI,0701JD,051,503,25-Jan-2007 5:51:52 AM,24-Jan-2007 9:51:52 PM,33.88066,-120.13134,083.3 051.0,083.3,051.0,35.000,35.254,12.5979,12.6050,33.6410,33.6397,33.6371,33.6372,3.90957,4.73,4.77,0.3553,1.08,1.81,0.7817,12.45,9.907,25.4200,25.4156,0.5665,86.7943,4.7992e+00,9.9990e+03,,,,,,,
CalCOFI,0701JD,051,503,25-Jan-2007 5:51:53 AM,24-Jan-2007 9:51:53 PM,33.88066,-120.13134,083.3 051.0,083.3,051.0,34.000,34.247,12.6879,12.6966,33.6360,33.6347,33.6334,33.6335,4.04215,4.89,4.93,0.4000,1.25,2.02,0.7765,12.30,9.750,25.3986,25.3949,0.5736,86.6405,4.9547e+00,9.9990e+03,,,,,,,
CalCOFI,0701JD,051,503,25-Jan-2007 5:51:55 AM,24-Jan-2007 9:51:55 PM,33.88066,-120.13134,083.3 051.0,083.3,051.0,33.000,33.239,12.8160,12.8142,33.6294,33.6281,33.6264,33.6265,4.10099,4.97,5.00,0.3702,1.14,1.88,0.7220,10.70,8.105,25.3683,25.3664,0.5865,86.3626,4.8726e+00,9.9990e+03,,,,,,,
CalCOFI,0701JD,051,503,25-Jan-2007 5:51:56 AM,24-Jan-2007 9:51:56 PM,33.88066,-120.13134,083.3 051.0,083.3,051.0,32.000,32.232,12.8692,12.8677,33.6236,33.6223,33.6234,33.6235,4.12861,5.00,5.04,0.3614,1.11,1.84,0.7349,11.08,8.494,25.3534,25.3535,0.5985,86.1030,5.1201e+00,9.9990e+03,,,,,,,
CalCOFI,0701JD,051,503,25-Jan-2007 5:51:57 AM,24-Jan-2007 9:51:57 PM,33.88066,-120.13134,083.3 051.0,083.3,051.0,31.000,31.225,12.8727,12.8737,33.6230,33.6217,33.6222,33.6223,4.14574,5.02,5.06,0.4313,1.36,2.17,0.7010,10.08,7.471,25.3522,25.3514,0.6007,86.0548,5.4423e+00,9.9990e+03,,,,,,,
CalCOFI,0701JD,051,503,25-Jan-2007 5:52:10 AM,24-Jan-2007 9:52:10 PM,33.88066,-120.13137,083.3 051.0,083.3,051.0,30.000,30.217,12.8668,12.8745,33.6216,33.6203,33.6210,33.6211,4.17438,5.05,5.09,0.6664,2.30,3.16,0.6732,9.27,6.632,25.3522,25.3503,0.6033,86.0003,5.0085e+00,9.9990e+03,30,12.87 ,33.623, 5.10,2.35,.80,6.2
CalCOFI,0701JD,051,503,25-Jan-2007 5:52:51 AM,24-Jan-2007 9:52:51 PM,33.88066,-120.13150,083.3 051.0,083.3,051.0,29.000,29.210,12.9109,12.9179,33.6183,33.6170,33.6174,33.6175,4.31207,5.22,5.26,0.4089,1.28,2.07,0.6342,8.12,5.455,25.3410,25.3389,0.6102,85.8511,5.1708e+00,9.9990e+03,,,,,,,
CalCOFI,0701JD,051,503,25-Jan-2007 5:52:52 AM,24-Jan-2007 9:52:52 PM,33.88066,-120.13150,083.3 051.0,083.3,051.0,28.000,28.203,12.9433,12.9459,33.6165,33.6152,33.6156,33.6157,4.35604,5.28,5.31,0.4437,1.41,2.23,0.6065,7.31,4.619,25.3331,25.3320,0.6131,85.7888,4.9171e+00,9.9990e+03,,,,,,,
CalCOFI,0701JD,051,503,25-Jan-2007 5:52:54 AM,24-Jan-2007 9:52:54 PM,33.88066,-120.13150,083.3 051.0,083.3,051.0,27.000,27.196,12.9842,12.9900,33.6154,33.6141,33.6139,33.6140,4.42521,5.36,5.40,0.4201,1.32,2.12,0.5906,6.84,4.139,25.3242,25.3219,0.6089,85.8798,5.4590e+00,9.9990e+03,,,,,,,
CalCOFI,0701JD,051,503,25-Jan-2007 5:52:55 AM,24-Jan-2007 9:52:55 PM,33.88066,-120.13150,083.3 051.0,083.3,051.0,26.000,26.188,13.0435,13.0435,33.6137,33.6124,33.6124,33.6125,4.49622,5.45,5.48,0.4336,1.37,2.18,0.6284,7.95,5.280,25.3110,25.3101,0.6189,85.6642,5.0140e+00,9.9990e+03,,,,,,,
CalCOFI,0701JD,051,503,25-Jan-2007 5:52:56 AM,24-Jan-2007 9:52:56 PM,33.88066,-120.13150,083.3 051.0,083.3,051.0,25.000,25.181,13.1536,13.1569,33.6099,33.6086,33.6073,33.6074,4.56224,5.53,5.57,0.4896,1.58,2.43,0.6210,7.74,5.056,25.2862,25.2835,0.6329,85.3670,5.1410e+00,9.9990e+03,,,,,,,
CalCOFI,0701JD,051,503,25-Jan-2007 5:52:58 AM,24-Jan-2007 9:52:58 PM,33.88069,-120.13150,083.3 051.0,083.3,051.0,24.000,24.174,13.2247,13.2259,33.6077,33.6064,33.6052,33.6053,4.62013,5.60,5.64,0.4806,1.55,2.39,0.5848,6.67,3.964,25.2702,25.2680,0.6466,85.0736,5.1403e+00,9.9990e+03,,,,,,,
CalCOFI,0701JD,051,503,25-Jan-2007 5:52:59 AM,24-Jan-2007 9:52:59 PM,33.88082,-120.13150,083.3 051.0,083.3,051.0,23.000,23.166,13.3294,13.3301,33.6024,33.6011,33.6007,33.6008,4.65471,5.64,5.68,0.5967,2.01,2.89,0.5496,5.64,2.901,25.2451,25.2436,0.6563,84.8688,5.2805e+00,9.9990e+03,,,,,,,
CalCOFI,0701JD,051,503,25-Jan-2007 5:53:00 AM,24-Jan-2007 9:53:00 PM,33.88082,-120.13150,083.3 051.0,083.3,051.0,22.000,22.159,13.3748,13.3794,33.5994,33.5981,33.5983,33.5984,4.67905,5.67,5.71,0.7197,2.53,3.36,0.5614,5.99,3.257,25.2336,25.2317,0.6639,84.7076,5.2027e+00,9.9990e+03,,,,,,,
CalCOFI,0701JD,051,503,25-Jan-2007 5:53:02 AM,24-Jan-2007 9:53:02 PM,33.88082,-120.13150,083.3 051.0,083.3,051.0,21.000,21.152,13.4007,13.4040,33.5971,33.5958,33.5970,33.5971,4.68340,5.67,5.71,0.6639,2.29,3.15,0.5677,6.17,3.447,25.2265,25.2258,0.6658,84.6668,5.0255e+00,9.9990e+03,,,,,,,
CalCOFI,0701JD,051,503,25-Jan-2007 5:53:13 AM,24-Jan-2007 9:53:13 PM,33.88082,-120.13150,083.3 051.0,083.3,051.0,20.000,20.144,13.3982,13.3952,33.5956,33.5943,33.5958,33.5959,4.70906,5.71,5.74,0.6615,2.28,3.14,0.5394,5.34,2.593,25.2258,25.2266,0.6646,84.6924,5.3187e+00,9.9990e+03,20,13.39 ,33.596, 5.76,3.69,.71,2.5
CalCOFI,0701JD,051,503,25-Jan-2007 5:54:22 AM,24-Jan-2007 9:54:22 PM,33.88082,-120.13169,083.3 051.0,083.3,051.0,19.000,19.137,13.4244,13.4264,33.5941,33.5928,33.5935,33.5936,4.78441,5.80,5.84,0.6857,2.38,3.24,0.5250,4.92,2.158,25.2194,25.2185,0.6748,84.4765,5.1639e+00,9.9990e+03,,,,,,,
CalCOFI,0701JD,051,503,25-Jan-2007 5:54:21 AM,24-Jan-2007 9:54:21 PM,33.88082,-120.13168,083.3 051.0,083.3,051.0,18.000,18.130,13.4432,13.4450,33.5928,33.5915,33.5925,33.5926,4.78498,5.80,5.84,0.7719,2.76,3.55,0.5130,4.57,1.796,25.2145,25.2139,0.6723,84.5296,5.0988e+00,9.9990e+03,,,,,,,
CalCOFI,0701JD,051,503,25-Jan-2007 5:54:22 AM,24-Jan-2007 9:54:22 PM,33.88082,-120.13168,083.3 051.0,083.3,051.0,17.000,17.123,13.4511,13.4518,33.5920,33.5907,33.5918,33.5919,4.78720,5.80,5.84,0.7064,2.47,3.32,0.5450,5.51,2.762,25.2123,25.2120,0.6735,84.5038,5.2625e+00,9.9990e+03,,,,,,,
CalCOFI,0701JD,051,503,25-Jan-2007 5:54:23 AM,24-Jan-2007 9:54:23 PM,33.88082,-120.13168,083.3 051.0,083.3,051.0,16.000,16.115,13.4494,13.4505,33.5922,33.5909,33.5921,33.5922,4.78883,5.80,5.84,0.7375,2.61,3.43,0.5113,4.52,1.745,25.2127,25.2124,0.6759,84.4525,5.2113e+00,9.9990e+03,,,,,,,
CalCOFI,0701JD,051,503,25-Jan-2007 5:54:25 AM,24-Jan-2007 9:54:25 PM,33.88082,-120.13168,083.3 051.0,083.3,051.0,15.000,15.108,13.4489,13.4500,33.5922,33.5909,33.5919,33.5920,4.79272,5.81,5.85,0.7766,2.78,3.57,0.5205,4.79,2.023,25.2128,25.2124,0.6768,84.4352,5.4254e+00,9.9990e+03,,,,,,,
CalCOFI,0701JD,051,503,25-Jan-2007 5:54:26 AM,24-Jan-2007 9:54:26 PM,33.88082,-120.13168,083.3 051.0,083.3,051.0,14.000,14.101,13.4494,13.4495,33.5920,33.5907,33.5918,33.5919,4.79741,5.81,5.85,0.8510,3.12,3.82,0.5116,4.52,1.754,25.2125,25.2124,0.6718,84.5397,5.2003e+00,9.9990e+03,,,,,,,
CalCOFI,0701JD,051,503,25-Jan-2007 5:54:28 AM,24-Jan-2007 9:54:28 PM,33.88082,-120.13168,083.3 051.0,083.3,051.0,13.000,13.094,13.4495,13.4500,33.5919,33.5906,33.5916,33.5917,4.79989,5.82,5.86,0.8424,3.08,3.79,0.5213,4.81,2.047,25.2124,25.2121,0.6810,84.3459,4.9000e+00,9.9990e+03,,,,,,,
CalCOFI,0701JD,051,503,25-Jan-2007 5:54:30 AM,24-Jan-2007 9:54:30 PM,33.88082,-120.13168,083.3 051.0,083.3,051.0,12.000,12.086,13.4490,13.4495,33.5920,33.5907,33.5918,33.5919,4.79939,5.82,5.85,0.7602,2.71,3.51,0.5159,4.65,1.884,25.2126,25.2123,0.6734,84.5070,5.4296e+00,9.9990e+03,,,,,,,
CalCOFI,0701JD,051,503,25-Jan-2007 5:54:32 AM,24-Jan-2007 9:54:32 PM,33.88082,-120.13168,083.3 051.0,083.3,051.0,11.000,11.079,13.4479,13.4485,33.5920,33.5907,33.5918,33.5919,4.79932,5.82,5.85,0.9154,3.43,4.03,0.5161,4.66,1.890,25.2127,25.2124,0.6771,84.4279,5.0696e+00,9.9990e+03,,,,,,,
CalCOFI,0701JD,051,503,25-Jan-2007 5:55:33 AM,24-Jan-2007 9:55:33 PM,33.88093,-120.13178,083.3 051.0,083.3,051.0,10.000,10.072,13.4448,13.4448,33.5925,33.5912,33.5920,33.5921,4.79243,5.81,5.85,0.9073,3.39,4.00,0.5318,5.12,2.364,25.2137,25.2134,0.6742,84.4896,5.3145e+00,9.9990e+03,10,13.44 ,33.593, 5.79,3.99,.78,2.4
CalCOFI,0701JD,051,503,25-Jan-2007 5:56:10 AM,24-Jan-2007 9:56:10 PM,33.88100,-120.13184,083.3 051.0,083.3,051.0,9.000,9.065,13.4461,13.4470,33.5924,33.5911,33.5917,33.5918,4.78796,5.80,5.84,0.6857,2.38,3.24,0.4920,3.95,1.162,25.2133,25.2126,0.6774,84.4224,5.4714e+00,9.9990e+03,,,,,,,
CalCOFI,0701JD,051,503,25-Jan-2007 5:56:13 AM,24-Jan-2007 9:56:13 PM,33.88100,-120.13184,083.3 051.0,083.3,051.0,8.000,8.058,13.4467,13.4471,33.5922,33.5909,33.5916,33.5917,4.79802,5.81,5.85,0.8015,2.90,3.66,0.5206,4.79,2.026,25.2131,25.2125,0.6816,84.3330,5.5301e+00,9.9990e+03,,,,,,,
CalCOFI,0701JD,051,503,25-Jan-2007 5:56:16 AM,24-Jan-2007 9:56:16 PM,33.88100,-120.13184,083.3 051.0,083.3,051.0,7.000,7.050,13.4466,13.4473,33.5923,33.5910,33.5916,33.5917,4.80126,5.82,5.86,0.8496,3.12,3.82,0.5227,4.85,2.089,25.2131,25.2124,0.6787,84.3951,5.3262e+00,9.9990e+03,,,,,,,